Tracking 19572 objects as of 23-Feb-2019
HD Live streaming from Space Station
objects crossing your sky now

COSMOS 1823 DEB

Track COSMOS 1823 DEB now!
10-day predictions


NORAD ID: 27742
Int'l Code: 1987-020DV
Perigee: 743.6 km
Apogee: 884.2 km
Inclination: 74.2 °
Period: 101.0 minutes
Semi major axis: 7184 km
RCS: 0.0054 m2 (small)
Launch date: February 20, 1987
Source: Commonwealth of Independent States (former USSR) (CIS)
Launch site: PLESETSK MISSILE AND SPACE COMPLEX (PKMTR)

Note: This is SATELLITE DEBRIS
aabbcc
Your satellite tracking list
Your tracking list is empty




NASA's NSSDC Master Catalog

Two Line Element Set (TLE):
1 27742U 87020DV  19053.17056187 -.00008324  00000-0 -33443-2 0  9990
2 27742  74.1849  95.8546 0097836 187.1640 172.8118 14.25503928981739
Source of the keplerian elements: AFSPC